Location: Lafig�re
(44.4503°N, 4.0357°E)
Time: 17:36:01
(UTC+00:00)

S-56A Canister/Altair - Pass Details

Date: 30 January 2021
Orbit: 631 x 2501 km, 38.9° (Epoch: 04 March)

Event Time Altitude Azimuth Distance (km) Brightness Sun altitude
Rises 01:49:51 0° 254° (WSW) 3,316 - -54.3°
Reaches altitude 10° 01:52:37 10° 247° (WSW) 2,219 - -53.9°
Maximum altitude 01:57:13 42° 177° (S) 920 - -53.2°
Drops below altitude 10° 02:01:24 10° 106° (ESE) 2,009 - -52.6°
Sets 02:03:47 0° 99° (E) 2,962 - -52.3°
